Skip Page Navigation
NASA JPL Caltech
NASA Logo - Jet Propulsion Laboratory + View the NASA Portal
+ Center for Near-Earth Object Studies
JPL Home Earth Solar System Stars & Galaxies Technology
JPL Solar System Dynamics
BODIES ORBITS EPHEMERIDES TOOLS PHYSICAL DATA DISCOVERY FAQ SITE MAP
IMPORTANT: The SSD Announcement email list is now available. Major changes are coming in the near future, including possible hostname and/or URL changes. To be notified of such changes, subscribe to this email list.

Please visit this page for more details.


JPL Small-Body Database Browser
Search: [ help ]  
324438 (2006 TP29)
Classification: Main-belt Asteroid          SPK-ID: 2324438
Ephemeris | Orbit Diagram | Orbital Elements | Mission Design | Physical Parameters | Discovery Circumstances ]

[ show orbit diagram ]
Orbital Elements at Epoch 2458600.5 (2019-Apr-27.0) TDB
Reference: JPL 14 (heliocentric ecliptic J2000)
 Element Value Uncertainty (1-sigma)   Units 
e .1800868333108646 5.3173e-08  
a 2.58243823358351 2.6048e-08 au
q 2.117375109876553 1.4947e-07 au
i 7.506161886799411 6.9372e-06 deg
node 203.8832260071119 5.1839e-05 deg
peri 203.1165725119615 6.1761e-05 deg
M 356.2520921358633 3.6185e-05 deg
tp 2458616.280826549913
(2019-May-12.78082655)
0.00015255 TDB
period 1515.805020803869
4.15
2.2934e-05
6.279e-08
d
yr
n .2374975640396566 3.5934e-09 deg/d
Q 3.047501357290467 3.0739e-08 au
  Orbit Determination Parameters
   # obs. used (total)      181  
   data-arc span      4388 days (12.01 yr)  
   first obs. used      2006-09-25  
   last obs. used      2018-09-30  
   planetary ephem.      DE431  
   SB-pert. ephem.      SB431-N16  
   condition code      0  
   norm. resid. RMS      .60766  
   source      ORB  
   producer      Otto Matic  
   solution date      2019-Jul-14 08:10:50  

Additional Information
 Earth MOID = 1.12838 au 
 Jupiter MOID = 2.35439 au 
 T_jup = 3.389 
[ show covariance matrix ]

Ephemeris | Orbit Diagram | Orbital Elements | Mission Design | Physical Parameters | Discovery Circumstances ]

Physical Parameter Table
Parameter Symbol Value Units Sigma Reference Notes
absolute magnitude H 17.2   n/a MPO455391  

324438 (2006 TP29)          Discovered 2006-Oct-12 by Spacewatch at Kitt Peak
Reference: 20120406/Numbers.arcLast Updated: 2012-04-09
Ephemeris | Orbit Diagram | Orbital Elements | Mission Design | Physical Parameters | Discovery Circumstances ]
ABOUT SSD CREDITS/AWARDS PRIVACY/COPYRIGHT GLOSSARY LINKS
FirstGov 2019-Oct-15 07:41 UT
(server date/time)  
NASA Home Page
Site Manager:   Ryan S. Park
Webmaster  Alan B. Chamberlin